Date String (YYYY-MM-DD hh:mm:ss) UTC,Instrument flags,Ambient pressure (hPa),Sample flow (lpm),Bypass flow (lpm),Sample temperature (°C),Ambient temperature (°C),ASC tube jacket temperature (°C),LED temperature (°C),Box temperature (°C),Sample RH (%),Span deviation,Mass concentration (μg/m³),Mass concentration (μg/m³),Mass concentration (μg/m³)
DateTimeUTC,F1_M11,P_M11,Q1_M11,Q2_M11,T1_M11,T2_M11,T3_M11,T4_M11,T5_M11,U1_M11,ZSPAN_M11,X0_M11,X2_M11,X1_M11
2023-02-09 15:00:00,,0832.1,5.02,0.00,22.1,20.2,00.0,31.1,23.7,06.9,0000.0,0003.49,0000.73,0000.40
2023-02-09 15:01:00,,0832.1,5.00,0.00,22.1,20.1,00.0,31.1,23.7,07.0,0000.0,0004.50,0000.70,0000.40
2023-02-09 15:02:00,,0832.1,5.04,0.00,22.0,20.1,00.0,31.0,23.7,06.9,0000.0,0004.33,0000.70,0000.40
2023-02-09 15:03:00,,0832.1,4.98,0.00,22.0,20.4,00.0,31.0,23.7,06.9,0000.0,0004.19,0000.70,0000.41
2023-02-09 15:04:00,,0832.1,4.98,0.00,22.1,21.6,00.0,31.0,24.0,06.8,0000.0,0004.35,0000.74,0000.40
2023-02-09 15:05:00,,0832.1,4.98,0.00,22.2,22.4,00.0,31.0,24.2,06.8,0000.0,0004.29,0000.75,0000.40
2023-02-09 15:06:00,,0832.1,5.02,0.00,22.3,22.0,00.0,31.0,24.1,07.0,0000.0,0004.14,0000.79,0000.40
2023-02-09 15:07:00,,0832.1,5.00,0.00,22.3,21.5,00.0,31.0,24.0,07.0,0000.0,0004.09,0000.81,0000.41
2023-02-09 15:08:00,,0832.1,5.00,0.00,22.2,21.1,00.0,31.1,23.9,06.8,0000.0,0004.37,0000.84,0000.41
2023-02-09 15:09:00,,0832.1,4.99,0.00,22.2,20.7,00.0,31.1,23.8,06.9,0000.0,0003.47,0000.83,0000.42
2023-02-09 15:10:00,,0832.1,5.03,0.00,22.1,20.4,00.0,31.0,23.7,06.6,0000.0,0003.49,0000.85,0000.42
2023-02-09 15:11:00,,0832.1,5.01,0.00,22.1,20.2,00.0,31.0,23.6,06.6,0000.0,0003.44,0000.84,0000.42
2023-02-09 15:12:00,,0832.1,5.02,0.00,22.0,20.0,00.0,31.0,23.5,06.7,0000.0,0002.36,0000.83,0000.42
2023-02-09 15:13:00,,0832.1,4.98,0.00,22.0,19.8,00.0,31.0,23.5,06.9,0000.0,0002.06,0000.79,0000.42
2023-02-09 15:14:00,,0832.1,4.99,0.00,21.9,19.7,00.0,31.0,23.5,07.1,0000.0,0002.21,0000.77,0000.43
2023-02-09 15:15:00,,0832.1,4.99,0.00,21.9,20.5,00.0,30.9,23.6,06.9,0000.0,0002.17,0000.74,0000.43
2023-02-09 15:16:00,,0832.1,5.01,0.00,22.0,21.8,00.0,30.9,23.9,06.8,0000.0,0002.08,0000.73,0000.43
2023-02-09 15:17:00,,0832.2,4.99,0.00,22.2,22.7,00.0,30.9,24.2,06.8,0000.0,0001.98,0000.69,0000.42
2023-02-09 15:18:00,,0832.2,5.01,0.00,22.2,22.4,00.0,30.9,24.1,07.0,0000.0,0001.88,0000.65,0000.42
2023-02-09 15:19:00,,0832.2,4.98,0.00,22.2,21.7,00.0,31.0,24.0,07.1,0000.0,0001.74,0000.64,0000.42
2023-02-09 15:20:00,,0832.2,5.02,0.00,22.2,21.3,00.0,31.0,23.9,07.3,0000.0,0001.53,0000.65,0000.43
2023-02-09 15:21:00,,0832.3,4.97,0.00,22.1,20.9,00.0,31.0,23.8,07.1,0000.0,0001.61,0000.67,0000.43
2023-02-09 15:22:00,,0832.3,5.07,0.00,22.1,20.6,00.0,31.0,23.7,06.9,0000.0,0001.63,0000.69,0000.44
2023-02-09 15:23:00,,0832.3,4.97,0.00,22.1,20.4,00.0,31.0,23.7,07.0,0000.0,0001.71,0000.72,0000.45
2023-02-09 15:24:00,,0832.2,5.05,0.00,22.0,20.2,00.0,31.0,23.6,07.0,0000.0,0002.16,0000.74,0000.46
2023-02-09 15:25:00,,0832.2,4.97,0.00,22.0,20.0,00.0,31.0,23.5,07.0,0000.0,0002.56,0000.74,0000.46
2023-02-09 15:26:00,,0832.2,5.07,0.00,21.9,19.7,00.0,30.9,23.3,06.8,0000.0,0002.26,0000.69,0000.47
2023-02-09 15:27:00,,0832.3,4.97,0.00,21.8,19.6,00.0,30.9,23.2,06.8,0000.0,0002.25,0000.68,0000.47
2023-02-09 15:28:00,,0832.2,5.03,0.00,21.9,20.6,00.0,30.8,23.5,06.8,0000.0,0002.29,0000.69,0000.49
2023-02-09 15:29:00,,0832.4,4.99,0.00,22.0,21.9,00.0,30.8,23.8,06.7,0000.0,0002.35,0000.71,0000.50
2023-02-09 15:30:00,,0832.4,5.02,0.00,22.1,22.6,00.0,30.8,24.0,06.6,0000.0,0002.38,0000.70,0000.50
2023-02-09 15:31:00,,0832.5,5.00,0.00,22.1,22.1,00.0,30.9,24.0,06.8,0000.0,0002.36,0000.70,0000.51
2023-02-09 15:32:00,,0832.5,5.02,0.00,22.1,21.6,00.0,30.9,23.9,06.9,0000.0,0002.25,0000.68,0000.51
2023-02-09 15:33:00,,0832.5,5.02,0.00,22.1,21.1,00.0,30.9,23.8,07.2,0000.0,0002.22,0000.67,0000.51
2023-02-09 15:34:00,,0832.6,4.99,0.00,22.1,20.8,00.0,30.9,23.7,07.2,0000.0,0002.74,0000.70,0000.52
2023-02-09 15:35:00,,0832.5,4.98,0.00,22.0,20.5,00.0,30.9,23.7,07.3,0000.0,0002.90,0000.71,0000.53
2023-02-09 15:36:00,,0832.4,5.01,0.00,22.0,20.3,00.0,30.9,23.6,06.9,0000.0,0002.30,0000.72,0000.54
2023-02-09 15:37:00,,0832.6,4.95,0.00,22.0,20.1,00.0,30.9,23.5,06.7,0000.0,0002.33,0000.73,0000.54
2023-02-09 15:38:00,,0832.6,5.04,0.00,21.9,20.0,00.0,30.9,23.5,07.0,0000.0,0002.35,0000.74,0000.55
2023-02-09 15:39:00,,0832.6,4.96,0.00,21.9,19.9,00.0,30.9,23.5,07.1,0000.0,0002.34,0000.74,0000.56
2023-02-09 15:40:00,,0832.7,5.03,0.00,21.8,19.9,00.0,30.8,23.4,07.2,0000.0,0002.31,0000.74,0000.55
2023-02-09 15:41:00,,0832.7,4.98,0.00,21.8,19.8,00.0,30.8,23.4,07.4,0000.0,0002.30,0000.75,0000.55
2023-02-09 15:42:00,,0832.6,5.04,0.00,21.8,20.4,00.0,30.8,23.5,07.4,0000.0,0002.23,0000.73,0000.55
2023-02-09 15:43:00,,0832.6,4.98,0.00,21.9,21.8,00.0,30.7,23.8,07.3,0000.0,0002.21,0000.73,0000.55
2023-02-09 15:44:00,,0832.6,5.02,0.00,22.0,22.8,00.0,30.8,24.1,07.0,0000.0,0003.30,0000.75,0000.56
2023-02-09 15:45:00,,0832.5,4.97,0.00,22.1,22.6,00.0,30.8,24.1,06.9,0000.0,0003.10,0000.73,0000.56
2023-02-09 15:46:00,,0832.5,4.99,0.00,22.1,21.9,00.0,30.9,23.9,06.8,0000.0,0002.52,0000.71,0000.55
2023-02-09 15:47:00,,0832.5,5.00,0.00,22.1,21.3,00.0,30.9,23.7,06.6,0000.0,0003.41,0000.69,0000.54
2023-02-09 15:48:00,,0832.5,4.97,0.00,22.0,20.8,00.0,30.9,23.6,06.6,0000.0,0003.84,0000.69,0000.55
2023-02-09 15:49:00,,0832.6,5.03,0.00,22.0,20.4,00.0,30.9,23.5,06.4,0000.0,0003.79,0000.67,0000.54
2023-02-09 15:50:00,,0832.7,5.01,0.00,21.9,20.1,00.0,30.9,23.4,06.5,0000.0,0003.85,0000.68,0000.53
2023-02-09 15:51:00,,0832.7,5.00,0.00,21.9,19.9,00.0,30.9,23.4,06.9,0000.0,0003.86,0000.68,0000.53
2023-02-09 15:52:00,,0832.7,5.01,0.00,21.8,19.8,00.0,30.8,23.4,07.3,0000.0,0003.83,0000.67,0000.53
2023-02-09 15:53:00,,0832.7,5.00,0.00,21.8,19.7,00.0,30.8,23.3,07.2,0000.0,0003.88,0000.68,0000.53
2023-02-09 15:54:00,,0832.7,5.00,0.00,21.7,19.6,00.0,30.8,23.3,07.2,0000.0,0003.95,0000.70,0000.53
2023-02-09 15:55:00,,0832.7,5.02,0.00,21.7,19.8,00.0,30.8,23.2,07.2,0000.0,0003.06,0000.69,0000.53
2023-02-09 15:56:00,,0832.7,4.99,0.00,21.8,21.1,00.0,30.7,23.5,07.2,0000.0,0003.01,0000.68,0000.53
2023-02-09 15:57:00,,0832.7,5.01,0.00,21.9,22.3,00.0,30.7,23.8,07.2,0000.0,0003.33,0000.69,0000.53
2023-02-09 15:58:00,,0832.7,5.00,0.00,22.0,22.7,00.0,30.7,24.0,07.1,0000.0,0002.85,0000.71,0000.53
2023-02-09 15:59:00,,0832.7,4.99,0.00,22.0,22.0,00.0,30.8,23.8,07.0,0000.0,0002.03,0000.73,0000.53
